Flag for Germany Weather past 2 weeks in Soest, North Rhine-Westphalia, Germany

Now
52 °F

Clear.


Feels Like: 48 °F
Forecast: 49 / 61 °F
Wind: 10 mph from South

Location: Dortmund / Wickede

Current Time: Oct 25, 2014 at 2:56:57 AM

Latest Report: Oct 24, 2014 at 10:50 PM


Visibility: 10 mi

Pressure: 30.07 "Hg

Humidity: 72%

Dew point: 43 °F

Location of SoestLocation

Historic Weather in Soest — Graph

°F

Soest temperature yesterday

Maximum temperature yesterday: 55 °F (at 4:20 PM)
Minimum temperature yesterday: 52 °F (at 5:20 AM)
Average temperature yesterday: 53 °F

Past Weeks' High & Low Weather Summary

 TemperatureHumidityPressure
High73 °F (Oct 19, 2:20 PM)94% (Oct 11, 7:50 AM)30.21 "Hg (Oct 11, 7:50 AM)
Low45 °F (Oct 22, 5:20 AM)49% (Oct 10, 2:50 PM)29.47 "Hg (Oct 21, 4:20 PM)
Average57 °F75%29.91 "Hg
* Reported Oct 9 10:20 PM — Oct 24 10:50 PM, Soest, Weather by CustomWeather, © 2014

Note: Actual official high and low records may vary slightly from our data, if they occured in-between our weather recording intervals... More about our weather records

Advertising

Soest weather history for previous 24 hours

 ConditionsComfort  
Time TempWeatherWind HumidityBarometerVisibility
10:50 PM
Oct 24
52 °FClear.10 mph72%30.07 "Hg10 mi
10:20 PM52 °FClear.10 mph72%30.07 "Hg10 mi
9:50 PM52 °FPassing clouds.12 mph72%30.07 "HgN/A
9:20 PM52 °FClear.9 mph72%30.07 "Hg10 mi
8:50 PM54 °FClear.10 mph67%30.07 "Hg10 mi
8:20 PM54 °FPassing clouds.10 mph67%30.07 "HgN/A
7:50 PM54 °FPassing clouds.10 mph67%30.07 "HgN/A
7:20 PM54 °FPassing clouds.9 mph67%30.07 "HgN/A
6:50 PM54 °FSunny.6 mph67%30.07 "Hg10 mi
6:20 PM52 °FSunny.6 mph72%30.07 "Hg10 mi
5:50 PM54 °FSunny.8 mph67%30.07 "Hg10 mi
5:20 PM54 °FSunny.7 mph67%30.07 "Hg10 mi
4:50 PM55 °FSunny.9 mph59%30.09 "Hg10 mi
4:20 PM55 °FSunny.9 mph63%30.09 "Hg10 mi
3:50 PM54 °FBroken clouds.8 mph72%30.09 "HgN/A
3:20 PM54 °FPartly sunny.12 mph67%30.09 "HgN/A
2:50 PM54 °FPartly sunny.12 mph67%30.12 "HgN/A
2:20 PM54 °FPartly sunny.8 mph72%30.12 "HgN/A
1:50 PM54 °FPartly sunny.8 mph67%30.12 "HgN/A
1:20 PM54 °FPartly sunny.8 mph72%30.12 "HgN/A
12:50 PM54 °FPartly sunny.12 mph67%30.15 "HgN/A
12:20 PM54 °FPartly sunny.12 mph67%30.15 "HgN/A
11:50 AM54 °FPartly sunny.9 mph72%30.15 "HgN/A
11:20 AM52 °FPartly sunny.9 mph77%30.15 "HgN/A
10:50 AM52 °FPartly sunny.9 mph72%30.15 "HgN/A
10:20 AM52 °FPartly sunny.8 mph72%30.15 "HgN/A
9:50 AM52 °FPartly sunny.7 mph72%30.15 "HgN/A
9:20 AM52 °FPartly sunny.6 mph72%30.15 "HgN/A
8:50 AM52 °FPassing clouds.7 mph72%30.15 "HgN/A
8:20 AM52 °FPassing clouds.8 mph72%30.15 "HgN/A
7:50 AM52 °FPassing clouds.6 mph77%30.15 "HgN/A
7:20 AM52 °FPassing clouds.8 mph77%30.15 "HgN/A
6:50 AM52 °FPassing clouds.8 mph77%30.15 "HgN/A
6:20 AM52 °FClear.7 mph77%30.15 "Hg10 mi
5:50 AM52 °FPassing clouds.9 mph77%30.15 "HgN/A
5:20 AM52 °FPassing clouds.8 mph77%30.15 "HgN/A
Weather by CustomWeather, © 2014

See weather overviewHow to use our weather pages